Overview Statistics Trail Chart Weather Telemetry Raw packets
 

This is the latest recevied weather packets stored in our database for station/object KE5OYL. If no packets are shown the sender has not sent any weather packets the latest 10 day(s).

<< 9 10 11 12 13 14 15 >>
Time Temp. Humidity Pressure Rain* Wind** Luminosity Snow
1788557643 37.22° C 42% 1012.1 hPa 0 mm - 533 W/m² -
1788557340 36.67° C 42% 1012 hPa 0 mm - 529 W/m² -
1788557039 36.67° C 42% 1012.3 hPa 0 mm - 534 W/m² -
1788556735 36.67° C 43% 1012.4 hPa 0 mm - 555 W/m² -
1788556429 37.22° C 42% 1012.3 hPa 0 mm - 588 W/m² -
1788556124 37.22° C 41% 1012.3 hPa 0 mm - 592 W/m² -
1788555824 37.22° C 40% 1012.3 hPa 0 mm - 608 W/m² -
1788555520 36.67° C 42% 1012.5 hPa 0 mm - 621 W/m² -
1788555216 37.22° C 41% 1012.5 hPa 0 mm - 620 W/m² -
1788554912 37.22° C 41% 1012.7 hPa 0 mm - 648 W/m² -
1788554608 36.67° C 42% 1012.4 hPa 0 mm - 693 W/m² -
1788554304 36.67° C 41% 1013 hPa 0 mm - 662 W/m² -
1788554000 36.67° C 41% 1012.8 hPa 0 mm - 677 W/m² -
1788553695 36.67° C 42% 1012.8 hPa 0 mm - 670 W/m² -
1788553392 36.67° C 42% 1012.8 hPa 0 mm - 674 W/m² -
1788553087 36.67° C 42% 1012.9 hPa 0 mm - 681 W/m² -
1788552781 36.11° C 42% 1012.9 hPa 0 mm - 681 W/m² -
1788552476 36.67° C 44% 1012.8 hPa 0 mm - 669 W/m² -
1788552170 36.11° C 44% 1013.1 hPa 0 mm - 708 W/m² -
1788551869 36.67° C 44% 1013.2 hPa 0 mm - 705 W/m² -
1788551568 36.11° C 44% 1013.3 hPa 0 mm - 736 W/m² -
1788551263 36.11° C 44% 1013.3 hPa 0 mm - 758 W/m² -
1788550962 36.11° C 43% 1013.5 hPa 0 mm - 781 W/m² -
1788550658 36.11° C 44% 1013.7 hPa 0 mm - 774 W/m² -
1788550353 35.56° C 44% 1013.4 hPa 0 mm - 768 W/m² -

* Rain latest hour (hover to see other rain measurements)
** Current wind speed in m/s (hover to see current wind gust speed)